GW2134 Weather Reports


Display with metric or nautical units.
time (UTC)temp
F
wind
direction
speed
MPH
gust
MPH
rain 1hr
in
rain 24hr
in
rain mn
in
humidity
%
barometer
mb
20260831014553 67 360 2.0 3.0 0.00 0.00 0.00 69 1020.2
20260831013102 67 0 0.0 2.0 0.00 0.00 0.00 68 1020.2
20260831011559 67 360 2.0 4.0 0.00 0.00 0.00 68 1020.0
20260831010107 67 360 2.0 4.0 0.00 0.00 0.00 69 1020.1
20260831004612 67 360 2.0 3.0 0.00 0.00 0.00 69 1020.2
20260831003109 67 360 1.0 3.0 0.00 0.00 0.00 69 1020.3
20260831001600 67 0 0.0 0.0 0.00 0.00 0.00 69 1020.2
20260831000110 67 0 0.0 0.0 0.00 0.00 0.00 69 1020.4
20260830234624 67 0 0.0 0.0 0.00 0.00 0.00 69 1020.3
20260830233104 67 0 0.0 5.0 0.00 0.00 0.00 70 1020.3
20260830231607 67 360 1.0 3.0 0.00 0.00 0.00 70 1020.3
20260830230059 68 0 0.0 4.0 0.00 0.00 0.00 69 1020.4
20260830224559 68 360 2.0 4.0 0.00 0.00 0.00 69 1020.2
20260830223057 69 360 0.0 3.0 0.00 0.00 0.00 68 1020.3
20260830221553 69 0 0.0 3.0 0.00 0.00 0.00 67 1020.3
20260830220106 69 360 1.0 4.0 0.00 0.00 0.00 66 1020.2
20260830214602 70 360 2.0 5.0 0.00 0.00 0.00 66 1020.2
20260830213107 70 360 2.0 5.0 0.00 0.00 0.00 65 1020.2
20260830211606 70 360 1.0 4.0 0.00 0.00 0.00 65 1020.2
20260830210103 70 350 2.0 4.0 0.00 0.00 0.00 64 1020.1
20260830204558 71 360 0.0 4.0 0.00 0.00 0.00 62 1020.1
20260830203101 71 0 0.0 2.0 0.00 0.00 0.00 61 1020.1
20260830201606 71 0 1.0 5.0 0.00 0.00 0.00 61 1020.1
20260830200106 72 21 1.0 3.0 0.00 0.00 0.00 60 1020.2
20260830194602 72 297 2.0 4.0 0.00 0.00 0.00 59 1020.2
20260830193056 72 348 0.0 3.0 0.00 0.00 0.00 58 1020.2
20260830191555 73 207 0.0 5.0 0.00 0.00 0.00 58 1020.2
20260830184601 74 325 3.0 6.0 0.00 0.00 0.00 56 1020.1
20260830183103 74 318 3.0 6.0 0.00 0.00 0.00 55 1019.9
20260830181600 75 318 3.0 5.0 0.00 0.00 0.00 54 1019.7
20260830180108 75 327 3.0 5.0 0.00 0.00 0.00 53 1019.5
20260830174617 76 325 2.0 4.0 0.00 0.00 0.00 52 1019.4
20260830173108 78 315 2.0 6.0 0.00 0.00 0.00 49 1019.2
20260830171609 79 324 3.0 6.0 0.00 0.00 0.00 47 1019.1
20260830170110 79 355 2.0 6.0 0.00 0.00 0.00 46 1019.1
20260830164604 80 297 2.0 5.0 0.00 0.00 0.00 45 1019.2
20260830163107 81 28 2.0 5.0 0.00 0.00 0.00 40 1019.0
20260830161622 85 319 1.0 4.0 0.00 0.00 0.00 33 1018.9
20260830160104 87 0 0.0 5.0 0.00 0.00 0.00 29 1018.9
20260830154601 89 152 2.0 5.0 0.00 0.00 0.00 27 1018.9
20260830153055 90 0 0.0 7.0 0.00 0.00 0.00 26 1018.9
20260830151559 90 111 0.0 2.0 0.00 0.00 0.00 26 1018.8
20260830150121 89 0 0.0 7.0 0.00 0.00 0.00 26 1019.0
20260830144555 88 190 0.0 7.0 0.00 0.00 0.00 27 1019.0
20260830143105 89 184 3.0 7.0 0.00 0.00 0.00 26 1019.1
20260830141559 89 148 3.0 7.0 0.00 0.00 0.00 26 1019.1
20260830140109 88 0 0.0 5.0 0.00 0.00 0.00 27 1019.2
20260830134604 87 109 2.0 10.0 0.00 0.00 0.00 28 1019.4
20260830133103 88 201 4.0 9.0 0.00 0.00 0.00 27 1019.6
20260830131601 88 0 2.0 8.0 0.00 0.00 0.00 28 1019.7
20260830130108 87 0 1.0 5.0 0.00 0.00 0.00 28 1019.8
20260830124605 86 141 1.0 8.0 0.00 0.00 0.00 30 1019.9
20260830123100 86 126 1.0 7.0 0.00 0.00 0.00 30 1019.9
20260830121559 86 143 2.0 7.0 0.00 0.00 0.00 31 1020.0
20260830120104 84 119 1.0 6.0 0.00 0.00 0.00 32 1019.9
20260830114615 84 184 3.0 12.0 0.00 0.00 0.00 33 1020.0
20260830113101 83 0 1.0 4.0 0.00 0.00 0.00 35 1020.0
20260830111602 83 122 3.0 9.0 0.00 0.00 0.00 35 1020.0
20260830110101 83 166 3.0 9.0 0.00 0.00 0.00 35 1020.0
20260830104559 83 144 3.0 8.0 0.00 0.00 0.00 35 1020.0
20260830103057 83 126 3.0 5.0 0.00 0.00 0.00 35 1020.1
20260830101556 82 177 4.0 9.0 0.00 0.00 0.00 36 1020.3
20260830094600 82 107 1.0 5.0 0.00 0.00 0.00 38 1020.6
20260830093101 80 78 2.0 7.0 0.00 0.00 0.00 38 1020.7
20260830091601 80 144 1.0 6.0 0.00 0.00 0.00 38 1020.8
20260830090122 80 136 1.0 6.0 0.00 0.00 0.00 38 1020.7
20260830084605 79 121 1.0 4.0 0.00 0.00 0.00 37 1020.8
20260830083103 78 0 1.0 4.0 0.00 0.00 0.00 38 1020.8
20260830081603 77 139 1.0 4.0 0.00 0.00 0.00 39 1020.7
20260830080100 76 0 0.0 3.0 0.00 0.00 0.00 41 1020.6
20260830074626 75 117 0.0 2.0 0.00 0.00 0.00 42 1020.6
20260830073102 74 0 1.0 4.0 0.00 0.00 0.00 43 1020.5
20260830071602 73 120 0.0 3.0 0.00 0.00 0.00 44 1020.4
20260830070106 70 134 0.0 2.0 0.00 0.00 0.00 47 1020.2
20260830064604 69 134 0.0 2.0 0.00 0.00 0.00 50 1020.1
20260830063100 68 137 0.0 2.0 0.00 0.00 0.00 50 1020.0
20260830061601 67 330 0.0 2.0 0.00 0.00 0.00 49 1020.1
20260830060101 66 0 0.0 1.0 0.00 0.00 0.00 50 1020.0
20260830054620 66 0 0.0 1.0 0.00 0.00 0.00 54 1020.0
20260830053059 66 0 0.0 2.0 0.00 0.00 0.00 52 1020.0
20260830051600 65 0 0.0 4.0 0.00 0.00 0.00 49 1019.9
20260830050057 64 327 2.0 4.0 0.00 0.00 0.00 49 1019.8
20260830044612 64 34 0.0 1.0 0.00 0.00 0.00 44 1019.7
20260830043055 64 0 0.0 5.0 0.00 0.00 0.00 45 1019.8
20260830041632 64 17 0.0 2.0 0.00 0.00 0.00 43 1019.8
20260830040101 65 0 0.0 1.0 0.00 0.00 0.00 42 1019.8
20260830034559 65 0 1.0 5.0 0.00 0.00 0.00 45 1019.7
20260830033053 65 326 2.0 4.0 0.00 0.00 0.00 44 1019.7
20260830031559 65 338 2.0 5.0 0.00 0.00 0.00 42 1019.8
20260830030136 65 326 0.0 3.0 0.00 0.00 0.00 41 1019.8
20260830024600 65 0 0.0 2.0 0.00 0.00 0.00 40 1019.8
20260830023105 65 0 0.0 3.0 0.00 0.00 0.00 40 1019.8
20260830021603 66 22 0.0 2.0 0.00 0.00 0.00 40 1019.9
20260830020057 66 34 1.0 4.0 0.00 0.00 0.00 38 1020.0
20260830014614 67 5 1.0 5.0 0.00 0.00 0.00 36 1020.1